Regional Weather Roundup
Issued by NWS Burlington, VT

Home | Current Version | Previous Version | Text Only | Print | Product List | Glossary On
Versions: 1 2 3 4 5 6 7 8 9 10 11 12 13 14 15 16 17 18 19 20 21 22 23 24 25 26 27 28 29 30 31 32 33 34 35 36 37 38 39 40 41 42 43 44 45 46 47 48 49 50
000
ASUS41 KBTV 301930
RWRBTV
VERMONT REGIONAL WEATHER ROUNDUP
NATIONAL WEATHER SERVICE BURLINGTON VT
300 PM EDT THU JUL 30 2015

NOTE: "FAIR" INDICATES FEW OR NO CLOUDS BELOW 12,000 FEET WITH NO
SIGNIFICANT WEATHER AND/OR OBSTRUCTIONS TO VISIBILITY.

* THESE REPORTS ARE NOT UNDER NWS QUALITY CONTROL AND/OR DO NOT
  REPORT WEATHER SUCH AS PRECIPITATION AND FOG.

VTZ001>019-302000-
_____VERMONT_____


CITY           SKY/WX    TMP DP  RH WIND       PRES   REMARKS
BURLINGTON     RAIN      75  70  84 S16G24    29.74S
MONTPELIER     HVY RAIN  71  69  93 S8        29.83S FOG
MORRISVILLE    LGT RAIN  76  71  85 S12       29.77S
ST. JOHNSBURY*   N/A     77  71  82 MISG      29.74S
LYNDONVILLE*   LGT RAIN  74  70  88 SE6       29.79S
MIDDLEBURY*    RAIN      74  74 100 S3        29.76F
SPRINGFIELD    RAIN      77  75  93 SW3       29.77F FOG
HIGHGATE*      FAIR      79  74  84 S9        29.71F
NEWPORT*       RAIN      73  71  95 CALM      29.76S
BENNINGTON     LGT RAIN  78  72  81 S5        29.79F
SUTTON*          N/A     73 N/A N/A MISG        N/A
GALLUP MILLS*    N/A     75 N/A N/A MISG        N/A
MT. MANSFIELD*   N/A     64 N/A N/A W18G33      N/A

_____LAKE CHAMPLAIN_____


CITY           SKY/WX    TMP DP  RH WIND       PRES   REMARKS
COLCHESTER RF*   N/A     75  72  88 SW17        N/A
DIAMOND ISL*     N/A     73  72  94 S7          N/A

$$

NYZ007-026>031-035-052-083-302000-
_____NORTHERN NEW YORK_____


CITY           SKY/WX    TMP DP  RH WIND       PRES   REMARKS
PLATTSBURGH    CLOUDY    78  75  90 S8        29.71F
SARANAC LAKE   PTSUNNY   77  59  53 SW10      29.79F
MASSENA        MOSUNNY   84  66  54 SW15G24   29.72S
OGDENSBURG*    SUNNY     84  66  54 SW10G18   29.73F
POTSDAM*       MOSUNNY   82  70  65 W14G20    29.73F
STARK FALLS*     N/A     79 N/A N/A W9          N/A
WATERTOWN      SUNNY     81  62  52 SW14G28   29.78F
FT DRUM        SUNNY     83  57  41 W14G28    29.78F
ALBANY         CLOUDY    82  75  79 S10       29.77F
GLENS FALLS    LGT RAIN  75  72  90 S8        29.76F FOG

$$
NHZ002-005-011-302000-
_____NEW HAMPSHIRE_____


CITY           SKY/WX    TMP DP  RH WIND       PRES   REMARKS
LEBANON        LGT RAIN  74  70  87 NW6       29.76F FOG
KEENE          PTSUNNY   82  70  65 SW7G17    29.78F
MT WASHINGTON  FOG       58  56  95 SW30G39     N/A  VSB 3/16
PLYMOUTH       HVY RAIN  79  77  92 CALM      29.75F
WHITEFIELD     LGT RAIN  82  67  60 S5        29.77F

$$

_____REGIONAL QUEBEC LOCATIONS_____


CITY           SKY/WX    TMP DP  RH WIND       PRES   REMARKS
MONTREAL       PTSUNNY   82  72  69 SW12      29.68F
QUEBEC CITY    PTSUNNY   77  72  83 W14G24    29.66
SHERBROOKE     LGT RAIN  72  70  94 SE3       29.73F

_____REGIONAL ONTARIO LOCATIONS_____


CITY           SKY/WX    TMP DP  RH WIND       PRES   REMARKS
OTTAWA         PTSUNNY   84  61  45 W12       29.70F

______KEY______
VSB  - VISIBILITY IN MILES
WCI  - WIND CHILL INDEX
HX   - HEAT INDEX
$$
NNNN



USA.gov is the U.S. government's official web portal to all federal, state and local government web resources and services.